period_start,C,m1,H,J0,J1,J2,J3,J4,J5,JA,JB,JC,JD,JJ,JK,JN,#
2013-09-12 00:00:55,0.01,0.01,0.00,25.18,28.17,30.80,5.64,30.04,999.53,2047.99,3459.87,3355.05,3651.07,349.56,315.80,1.02,0000 0000 0000 0000 000000
2013-09-12 00:01:55,0.02,0.01,0.00,25.17,28.17,30.77,5.66,30.04,999.53,2047.99,3459.78,3355.03,3651.04,348.89,315.20,1.03,0000 0000 0000 0000 000000
2013-09-12 00:02:56,0.00,0.01,0.00,25.16,28.17,30.77,6.06,30.04,999.53,2047.99,3459.80,3355.04,3651.05,350.81,316.94,1.03,0000 0000 0000 0000 000000
2013-09-12 00:03:56,0.00,0.01,0.00,25.09,28.17,30.77,5.59,30.08,999.53,2047.99,3459.81,3355.08,3651.05,349.10,315.48,1.04,0000 0000 0000 0000 000000
2013-09-12 00:04:56,0.00,0.01,0.00,25.08,28.17,30.74,5.69,30.04,999.53,2047.99,3459.78,3355.04,3651.03,349.82,316.52,1.05,0000 0000 0000 0000 000000
2013-09-12 00:05:56,0.01,0.01,0.00,25.06,28.17,30.75,5.69,29.83,999.53,2047.98,3459.65,3355.02,3651.04,349.66,315.79,1.05,0000 0000 0000 0000 000000
2013-09-12 00:06:56,0.02,0.01,0.00,25.17,28.17,30.74,5.95,30.21,999.53,2047.99,3459.70,3355.04,3651.03,350.08,316.90,1.06,0000 0000 0000 0000 000000
2013-09-12 00:07:57,-0.01,0.01,0.00,25.22,28.17,30.73,5.72,29.88,999.53,2047.99,3459.77,3355.03,3651.03,348.97,314.92,1.06,0000 0000 0000 0000 000000
2013-09-12 00:08:57,0.00,0.01,0.00,25.27,28.17,30.73,5.72,29.96,999.53,2048.00,3459.82,3355.10,3651.03,349.58,315.62,1.07,0000 0000 0000 0000 000000
2013-09-12 00:09:57,-0.01,0.01,0.00,25.33,28.17,30.80,5.99,30.29,999.53,2048.00,3459.84,3355.10,3651.01,350.63,316.52,1.08,0000 0000 0000 0000 000000
2013-09-12 00:10:57,0.00,0.01,0.00,25.40,28.17,30.75,6.05,30.33,999.53,2048.00,3459.75,3355.07,3651.02,351.36,317.19,1.08,0000 0000 0000 0000 000000
2013-09-12 00:11:57,0.02,0.01,0.00,25.35,28.17,30.75,5.79,30.08,999.53,2048.00,3459.75,3355.05,3651.04,349.74,315.78,1.09,0000 0000 0000 0000 000000
2013-09-12 00:12:57,0.00,0.01,0.00,25.25,28.17,30.72,5.55,30.00,999.54,2048.00,3459.60,3355.03,3651.02,349.33,315.39,1.09,0000 0000 0000 0000 000000
2013-09-12 00:13:58,0.02,0.01,0.00,25.19,28.17,30.71,5.63,29.92,999.55,2048.00,3459.53,3355.01,3651.01,348.91,315.20,1.10,0000 0000 0000 0000 000000
2013-09-12 00:14:58,0.02,0.01,0.00,25.18,28.17,30.71,6.02,30.13,999.56,2048.00,3459.53,3355.03,3651.01,350.69,316.93,1.11,0000 0000 0000 0000 000000
2013-09-12 00:15:58,0.00,0.01,0.00,25.23,28.17,30.77,5.68,30.00,999.53,2047.99,3459.43,3355.03,3651.00,348.69,315.36,1.11,0000 0000 0000 0000 000000
2013-09-12 00:16:58,0.00,0.01,0.00,25.28,28.17,30.75,5.84,30.46,999.54,2047.98,3459.27,3355.01,3651.00,350.14,316.22,1.12,0000 0000 0000 0000 000000
2013-09-12 00:17:58,0.01,0.01,0.00,25.29,28.17,30.82,5.67,30.13,999.54,2047.99,3459.23,3355.01,3651.01,349.30,315.44,1.12,0000 0000 0000 0000 000000
2013-09-12 00:18:59,0.00,0.01,0.00,25.31,28.17,30.85,6.07,30.42,999.53,2047.99,3459.17,3355.03,3651.00,351.25,317.18,1.13,0000 0000 0000 0000 000000
2013-09-12 00:19:59,0.01,0.01,0.00,25.29,28.18,30.78,5.69,30.04,999.53,2047.99,3459.10,3355.02,3651.00,350.56,316.59,1.13,0000 0000 0000 0000 000000
2013-09-12 00:20:59,0.01,0.01,0.00,25.26,28.17,30.79,5.81,30.17,999.53,2047.99,3459.07,3355.01,3651.01,349.35,315.52,1.14,0000 0000 0000 0000 000000
2013-09-12 00:21:59,0.00,0.01,0.00,25.19,28.18,30.81,5.69,29.96,999.53,2047.99,3459.09,3355.01,3651.01,349.27,316.01,1.15,0000 0000 0000 0000 000000
2013-09-12 00:23:00,0.00,0.01,0.00,25.15,28.18,30.78,5.63,29.83,999.53,2047.99,3459.13,3355.02,3651.03,348.93,315.11,1.15,0000 0000 0000 0000 000000
2013-09-12 00:24:00,-0.01,0.01,0.00,25.25,28.18,30.73,6.03,29.92,999.54,2047.99,3459.11,3355.02,3651.01,350.37,316.45,1.16,0000 0000 0000 0000 000000
2013-09-12 00:25:00,0.01,0.01,0.00,25.25,28.18,30.70,5.88,29.96,999.54,2047.99,3459.07,3355.03,3651.01,349.58,315.74,1.16,0000 0000 0000 0000 000000
2013-09-12 00:26:01,0.00,0.01,0.00,25.20,28.18,30.71,6.04,30.04,999.55,2047.99,3459.07,3355.02,3651.00,351.18,317.24,1.17,0000 0000 0000 0000 000000
2013-09-12 00:27:01,0.00,0.01,0.00,25.18,28.18,30.79,5.68,29.88,999.54,2047.99,3459.06,3355.02,3651.00,349.75,315.97,1.18,0000 0000 0000 0000 000000
2013-09-12 00:28:01,0.00,0.01,0.00,25.14,28.18,30.82,5.68,30.08,999.53,2047.99,3459.07,3355.02,3651.00,351.18,317.21,1.18,0000 0000 0000 0000 000000
2013-09-12 00:29:01,0.00,0.01,0.00,25.14,28.18,30.76,5.85,30.25,999.53,2047.99,3459.06,3355.02,3651.00,350.08,316.31,1.19,0000 0000 0000 0000 000000
2013-09-12 00:30:01,0.00,0.01,0.00,25.12,28.18,30.78,5.77,30.13,999.53,2047.99,3459.06,3355.01,3651.00,349.59,315.91,1.19,0000 0000 0000 0000 000000
2013-09-12 00:31:02,0.00,0.01,0.00,25.19,28.18,30.82,5.93,30.17,999.53,2047.99,3459.05,3355.00,3651.00,349.61,315.83,1.20,0000 0000 0000 0000 000000
2013-09-12 00:32:02,0.00,0.01,0.00,25.20,28.18,30.77,5.77,29.96,999.53,2047.99,3459.03,3355.00,3651.00,349.46,316.41,1.20,0000 0000 0000 0000 000000
2013-09-12 00:33:02,0.00,0.01,0.00,25.17,28.18,30.81,5.80,29.92,999.53,2047.99,3459.01,3355.00,3651.00,349.03,315.32,1.21,0000 0000 0000 0000 000000
2013-09-12 00:34:03,0.00,0.01,0.00,25.22,28.18,30.72,6.09,30.17,999.53,2047.99,3459.04,3355.00,3651.00,350.94,317.01,1.22,0000 0000 0000 0000 000000
2013-09-12 00:35:03,0.00,0.01,0.00,25.32,28.18,30.69,5.65,29.96,999.53,2047.99,3459.01,3355.00,3651.00,349.66,315.80,1.22,0000 0000 0000 0000 000000
2013-09-12 00:36:03,0.00,0.01,0.00,25.39,28.18,30.71,6.04,30.13,999.53,2047.99,3459.02,3355.00,3651.00,350.48,316.28,1.23,0000 0000 0000 0000 000000
2013-09-12 00:37:03,0.00,0.01,0.00,25.34,28.19,30.71,5.65,29.96,999.53,2047.99,3459.02,3355.00,3651.00,349.87,315.90,1.23,0000 0000 0000 0000 000000
2013-09-12 00:38:04,0.00,0.01,0.00,25.32,28.19,30.72,6.03,30.29,999.53,2047.99,3459.03,3355.00,3650.98,350.37,316.38,1.24,0000 0000 0000 0000 000000
2013-09-12 00:39:04,0.00,0.01,0.00,25.31,28.19,30.74,5.86,30.00,999.53,2047.99,3459.03,3355.00,3650.99,350.45,316.58,1.25,0000 0000 0000 0000 000000
2013-09-12 00:40:04,-0.00,0.01,0.00,25.29,28.19,30.75,5.71,29.88,999.53,2047.98,3459.03,3355.00,3650.98,349.45,315.71,1.25,0000 0000 0000 0000 000000
2013-09-12 00:41:04,-0.01,0.01,0.00,25.31,28.19,30.76,5.92,30.33,999.53,2047.97,3459.03,3355.00,3650.99,349.90,315.97,1.26,0000 0000 0000 0000 000000
2013-09-12 00:42:04,0.00,0.01,0.00,25.32,28.19,30.73,5.97,30.54,999.53,2047.99,3459.01,3355.00,3650.99,350.78,316.60,1.26,0000 0000 0000 0000 000000
2013-09-12 00:43:05,0.01,0.01,0.00,25.38,28.19,30.74,5.75,30.08,999.53,2047.99,3459.00,3355.01,3650.99,350.13,316.10,1.27,0000 0000 0000 0000 000000
2013-09-12 00:44:05,0.00,0.01,0.00,25.38,28.19,30.72,5.93,30.29,999.53,2047.99,3459.00,3355.00,3650.99,350.54,316.47,1.27,0000 0000 0000 0000 000000
2013-09-12 00:45:05,0.00,0.01,0.00,25.33,28.19,30.70,5.98,30.29,999.53,2047.99,3459.00,3355.00,3650.99,350.62,316.59,1.28,0000 0000 0000 0000 000000
2013-09-12 00:46:05,0.00,0.01,0.00,25.30,28.19,30.71,5.64,30.00,999.53,2047.99,3459.00,3355.00,3650.99,349.98,316.04,1.29,0000 0000 0000 0000 000000
2013-09-12 00:47:05,0.00,0.01,0.00,25.24,28.19,30.70,5.71,30.17,999.53,2047.99,3459.00,3355.00,3650.99,349.98,316.11,1.29,0000 0000 0000 0000 000000
2013-09-12 00:48:06,0.00,0.01,0.00,25.22,28.19,30.74,5.77,30.04,999.53,2047.99,3459.00,3355.00,3650.99,349.69,315.87,1.30,0000 0000 0000 0000 000000
2013-09-12 00:49:06,0.00,0.01,0.00,25.20,28.19,30.74,6.06,30.38,999.53,2047.99,3459.00,3355.00,3650.99,351.12,317.00,1.30,0000 0000 0000 0000 000000
2013-09-12 00:50:06,0.00,0.01,0.00,25.24,28.19,30.73,5.68,30.33,999.53,2047.98,3459.00,3355.00,3650.98,349.61,315.97,1.31,0000 0000 0000 0000 000000
2013-09-12 00:51:06,0.00,0.01,0.00,25.25,28.19,30.72,5.82,30.33,999.53,2047.99,3459.00,3355.00,3650.99,349.51,315.67,1.32,0000 0000 0000 0000 000000
2013-09-12 00:52:06,0.00,0.01,0.00,25.30,28.19,30.74,5.65,30.04,999.53,2047.99,3459.00,3355.00,3650.97,349.10,315.58,1.32,0000 0000 0000 0000 000000
2013-09-12 00:53:07,0.01,0.01,0.00,25.35,28.19,30.73,5.63,30.00,999.53,2047.98,3459.00,3355.00,3650.97,349.13,314.97,1.33,0000 0000 0000 0000 000000
2013-09-12 00:54:07,-0.01,0.01,0.00,25.36,28.19,30.73,6.03,30.21,999.53,2047.99,3459.00,3355.00,3650.99,351.58,317.44,1.33,0000 0000 0000 0000 000000
2013-09-12 00:55:07,0.01,0.01,0.00,25.32,28.20,30.73,5.91,29.96,999.53,2047.99,3459.00,3355.00,3650.97,349.92,315.97,1.34,0000 0000 0000 0000 000000
2013-09-12 00:56:07,0.00,0.01,0.00,25.32,28.20,30.73,5.94,30.29,999.53,2047.99,3459.00,3355.01,3650.97,350.53,316.53,1.34,0000 0000 0000 0000 000000
2013-09-12 00:57:07,0.00,0.01,0.00,25.41,28.19,30.77,5.80,30.13,999.53,2047.99,3459.00,3355.04,3650.97,349.50,315.83,1.35,0000 0000 0000 0000 000000
2013-09-12 00:58:08,0.00,0.01,0.00,25.45,28.19,30.74,5.69,30.13,999.53,2047.99,3459.00,3355.01,3650.94,349.72,315.71,1.36,0000 0000 0000 0000 000000
2013-09-12 00:59:08,0.00,0.01,0.00,25.46,28.20,30.77,5.71,30.13,999.53,2047.99,3459.00,3355.01,3650.95,349.30,315.27,1.36,0000 0000 0000 0000 000000
2013-09-12 01:00:08,-0.00,0.01,0.00,25.42,28.20,30.73,5.83,30.13,999.53,2047.99,3459.00,3355.00,3650.95,350.09,316.13,1.37,0000 0000 0000 0000 000000
2013-09-12 01:01:08,-0.01,0.01,0.00,25.38,28.20,30.69,5.91,30.08,999.53,2047.99,3459.00,3355.00,3650.97,349.92,315.73,1.37,0000 0000 0000 0000 000000
2013-09-12 01:02:08,0.00,0.01,0.00,25.30,28.20,30.72,5.87,29.88,999.53,2047.98,3458.99,3355.00,3650.95,350.24,316.29,1.38,0000 0000 0000 0000 000000
2013-09-12 01:03:09,0.00,0.01,0.00,25.34,28.20,30.73,5.91,30.13,999.53,2047.99,3458.98,3355.00,3650.93,350.16,316.18,1.39,0000 0000 0000 0000 000000
2013-09-12 01:04:09,0.00,0.01,0.00,25.40,28.20,30.72,5.78,30.04,999.53,2047.99,3458.99,3355.00,3650.88,349.41,315.43,1.39,0000 0000 0000 0000 000000
2013-09-12 01:05:09,0.00,0.01,0.00,25.39,28.20,30.77,5.57,29.96,999.53,2047.99,3458.98,3355.00,3650.88,348.52,314.63,1.40,0000 0000 0000 0000 000000
2013-09-12 01:06:09,0.00,0.01,0.00,25.43,28.20,30.76,5.75,29.92,999.53,2047.98,3458.98,3355.00,3650.84,350.16,315.70,1.40,0000 0000 0000 0000 000000
2013-09-12 01:07:09,0.00,0.01,0.00,25.44,28.20,30.73,5.67,30.00,999.53,2047.99,3458.96,3355.00,3650.80,349.05,315.13,1.41,0000 0000 0000 0000 000000
2013-09-12 01:08:10,0.00,0.01,0.00,25.40,28.20,30.73,5.67,30.04,999.53,2047.99,3458.97,3355.00,3650.77,349.50,315.51,1.42,0000 0000 0000 0000 000000
2013-09-12 01:09:10,-0.00,0.01,0.00,25.32,28.20,30.75,5.73,29.83,999.53,2047.98,3458.98,3355.00,3650.75,348.84,314.99,1.42,0000 0000 0000 0000 000000
2013-09-12 01:10:10,-0.00,0.01,0.00,25.29,28.20,30.69,5.98,30.00,999.53,2047.99,3458.98,3355.00,3650.51,350.49,316.18,1.43,0000 0000 0000 0000 000000
2013-09-12 01:11:10,0.03,0.01,0.00,25.29,28.20,30.74,5.77,30.00,999.53,2047.99,3458.96,3355.00,3650.28,349.52,315.64,1.43,0000 0000 0000 0000 000000
2013-09-12 01:12:10,0.02,0.01,0.00,25.27,28.20,30.80,5.91,30.00,999.53,2047.98,3458.90,3355.00,3650.25,351.31,316.91,1.44,0000 0000 0000 0000 000000
2013-09-12 01:13:10,0.00,0.01,0.00,25.27,28.20,30.76,5.90,30.04,999.53,2047.99,3458.92,3355.00,3650.35,349.90,315.98,1.44,0000 0000 0000 0000 000000
2013-09-12 01:14:11,0.00,0.01,0.00,25.26,28.20,30.73,5.66,29.83,999.53,2047.99,3458.92,3355.00,3650.31,349.25,315.11,1.45,0000 0000 0000 0000 000000
2013-09-12 01:15:11,0.01,0.01,0.00,25.26,28.20,30.75,5.70,29.83,999.55,2047.98,3458.90,3355.00,3650.18,350.32,316.27,1.46,0000 0000 0000 0000 000000
2013-09-12 01:16:11,0.00,0.01,0.00,25.20,28.20,30.71,5.71,30.04,999.53,2047.97,3458.91,3355.00,3650.14,348.99,315.25,1.46,0000 0000 0000 0000 000000
2013-09-12 01:17:11,0.01,0.01,0.00,25.20,28.20,30.73,6.06,30.04,999.53,2047.97,3458.87,3355.00,3650.15,351.20,316.91,1.47,0000 0000 0000 0000 000000
2013-09-12 01:18:12,0.00,0.01,0.00,25.25,28.20,30.75,5.85,30.08,999.53,2047.98,3458.90,3355.00,3650.17,350.24,316.63,1.47,0000 0000 0000 0000 000000
2013-09-12 01:19:12,-0.00,0.01,0.00,25.31,28.20,30.70,5.72,29.92,999.53,2047.98,3458.94,3355.00,3650.28,350.32,316.13,1.48,0000 0000 0000 0000 000000
2013-09-12 01:20:12,-0.02,0.01,0.00,25.34,28.20,30.71,5.86,30.17,999.54,2047.99,3458.90,3355.00,3650.28,349.86,315.89,1.49,0000 0000 0000 0000 000000
2013-09-12 01:21:13,0.01,0.01,0.00,25.34,28.20,30.75,5.63,29.96,999.53,2047.99,3458.86,3355.00,3650.20,349.52,315.57,1.49,0000 0000 0000 0000 000000
2013-09-12 01:22:13,0.02,0.01,0.00,25.35,28.20,30.69,5.70,29.79,999.53,2047.98,3458.88,3355.00,3650.14,349.68,316.08,1.50,0000 0000 0000 0000 000000
2013-09-12 01:23:13,0.01,0.01,0.00,25.32,28.20,30.69,5.60,29.88,999.53,2047.98,3458.68,3355.00,3650.08,349.38,315.32,1.50,0000 0000 0000 0000 000000
2013-09-12 01:24:13,0.03,0.01,0.00,25.30,28.20,30.69,5.74,29.92,999.53,2047.99,3458.62,3355.00,3650.08,349.98,316.05,1.51,0000 0000 0000 0000 000000
2013-09-12 01:25:14,0.01,0.01,0.00,25.35,28.20,30.71,5.93,29.83,999.53,2047.98,3458.42,3355.00,3650.04,350.92,316.66,1.51,0000 0000 0000 0000 000000
2013-09-12 01:26:14,0.01,0.01,0.00,25.42,28.20,30.68,5.87,30.00,999.53,2047.97,3458.42,3355.00,3650.05,349.64,315.39,1.52,0000 0000 0000 0000 000000
2013-09-12 01:27:14,0.00,0.01,0.00,25.45,28.20,30.72,5.97,30.00,999.54,2047.98,3458.34,3355.00,3650.02,350.01,316.18,1.53,0000 0000 0000 0000 000000
2013-09-12 01:28:15,0.01,0.01,0.00,25.47,28.20,30.73,5.83,29.96,999.54,2047.99,3458.24,3354.99,3650.06,350.13,316.01,1.53,0000 0000 0000 0000 000000
2013-09-12 01:29:15,0.01,0.01,0.00,25.42,28.20,30.76,5.89,30.21,999.57,2047.99,3458.24,3354.99,3650.04,350.34,315.93,1.54,0000 0000 0000 0000 000000
2013-09-12 01:30:15,0.00,0.01,0.00,25.42,28.20,30.74,5.99,30.21,999.55,2047.99,3458.18,3354.99,3650.06,350.01,315.89,1.54,0000 0000 0000 0000 000000
2013-09-12 01:31:15,0.00,0.01,0.00,25.43,28.20,30.75,5.92,30.29,999.56,2047.99,3458.18,3354.99,3650.09,350.29,316.21,1.55,0000 0000 0000 0000 000000
2013-09-12 01:32:16,-0.00,0.01,0.00,25.47,28.20,30.78,5.82,30.46,999.55,2047.98,3458.24,3354.99,3650.08,349.80,315.71,1.56,0000 0000 0000 0000 000000
2013-09-12 01:33:16,-0.00,0.01,0.00,25.45,28.20,30.76,5.68,30.21,999.55,2047.99,3458.17,3354.99,3650.06,349.58,315.50,1.56,0000 0000 0000 0000 000000
2013-09-12 01:34:16,0.01,0.01,0.00,25.37,28.20,30.76,5.73,30.08,999.56,2047.99,3458.13,3354.99,3650.03,349.84,315.85,1.57,0000 0000 0000 0000 000000
2013-09-12 01:35:16,0.01,0.01,0.00,25.35,28.20,30.72,5.87,30.00,999.55,2047.99,3458.08,3354.97,3650.00,350.36,315.98,1.57,0000 0000 0000 0000 000000
2013-09-12 01:36:17,0.00,0.01,0.00,25.38,28.20,30.71,5.98,30.29,999.55,2047.99,3458.04,3354.96,3650.00,350.79,317.07,1.58,0000 0000 0000 0000 000000
2013-09-12 01:37:17,0.01,0.01,0.00,25.40,28.20,30.72,5.82,30.08,999.56,2047.99,3458.04,3354.97,3650.01,350.09,316.05,1.58,0000 0000 0000 0000 000000
2013-09-12 01:38:17,0.00,0.01,0.00,25.40,28.20,30.77,5.72,29.83,999.59,2047.99,3458.02,3354.97,3650.00,349.68,316.11,1.59,0000 0000 0000 0000 000000
2013-09-12 01:39:17,0.00,0.01,0.00,25.37,28.20,30.81,6.00,29.88,999.65,2047.99,3458.00,3354.96,3650.00,349.96,316.38,1.60,0000 0000 0000 0000 000000
2013-09-12 01:40:18,0.00,0.01,0.00,25.36,28.20,30.79,5.97,29.96,999.69,2047.99,3458.01,3354.95,3650.00,350.88,316.94,1.60,0000 0000 0000 0000 000000
2013-09-12 01:41:18,0.00,0.01,0.00,25.35,28.20,30.74,5.92,30.17,999.78,2047.99,3458.01,3354.94,3650.00,350.46,316.14,1.61,0000 0000 0000 0000 000000
2013-09-12 01:42:18,0.00,0.01,0.00,25.39,28.20,30.70,5.79,30.21,999.81,2047.98,3458.00,3354.88,3650.00,349.56,315.65,1.61,0000 0000 0000 0000 000000
2013-09-12 01:43:19,0.01,0.01,0.00,25.38,28.20,30.71,5.82,30.21,999.78,2047.98,3458.00,3354.88,3650.00,350.23,316.29,1.62,0000 0000 0000 0000 000000
2013-09-12 01:44:19,-0.00,0.01,0.00,25.38,28.20,30.72,5.73,29.88,999.82,2047.98,3458.00,3354.94,3650.00,349.96,315.75,1.63,0000 0000 0000 0000 000000
2013-09-12 01:45:19,-0.01,0.01,0.00,25.35,28.20,30.76,5.69,29.92,999.85,2047.98,3458.00,3354.95,3650.00,348.63,315.68,1.63,0000 0000 0000 0000 000000
2013-09-12 01:46:19,-0.01,0.01,0.00,25.40,28.20,30.76,5.82,30.04,999.85,2047.98,3458.01,3354.96,3650.00,350.32,316.71,1.64,0000 0000 0000 0000 000000
2013-09-12 01:47:20,0.00,0.01,0.00,25.42,28.20,30.73,5.75,29.96,999.86,2047.98,3458.02,3354.96,3650.00,349.36,315.84,1.64,0000 0000 0000 0000 000000
2013-09-12 01:48:20,0.00,0.01,0.00,25.44,28.20,30.72,5.77,29.79,999.85,2047.97,3458.01,3354.95,3650.00,349.45,315.88,1.65,0000 0000 0000 0000 000000
2013-09-12 01:49:20,-0.00,0.01,0.00,25.47,28.20,30.73,5.67,29.75,999.86,2047.95,3458.00,3354.91,3650.00,349.36,315.41,1.66,0000 0000 0000 0000 000000
2013-09-12 01:50:21,-0.01,0.01,0.00,25.47,28.20,30.72,5.88,29.92,999.90,2047.96,3458.00,3354.94,3650.00,350.47,316.18,1.66,0000 0000 0000 0000 000000
2013-09-12 01:51:21,0.00,0.01,0.00,25.47,28.20,30.76,5.85,30.00,999.96,2047.97,3458.00,3354.95,3649.99,350.07,316.12,1.67,0000 0000 0000 0000 000000
2013-09-12 01:52:21,0.01,0.01,0.00,25.53,28.20,30.80,5.81,29.92,999.99,2047.97,3458.02,3354.94,3649.99,350.62,316.75,1.67,0000 0000 0000 0000 000000
2013-09-12 01:53:21,0.00,0.01,0.00,25.48,28.20,30.76,5.82,30.08,1000.00,2047.95,3458.01,3354.90,3649.99,349.52,315.61,1.68,0000 0000 0000 0000 000000
2013-09-12 01:54:22,-0.01,0.01,0.00,25.44,28.20,30.74,5.80,29.88,1000.00,2047.97,3458.00,3354.89,3649.98,349.64,316.12,1.68,0000 0000 0000 0000 000000
2013-09-12 01:55:22,0.03,0.01,0.00,25.37,28.20,30.83,5.71,29.96,1000.01,2047.98,3458.00,3354.73,3649.98,349.22,315.44,1.69,0000 0000 0000 0000 000000
2013-09-12 01:56:22,0.03,0.01,0.00,25.34,28.20,30.78,5.52,29.96,1000.01,2047.96,3458.00,3354.64,3649.98,348.78,315.37,1.70,0000 0000 0000 0000 000000
2013-09-12 01:57:23,0.00,0.01,0.00,25.40,28.20,30.80,5.88,29.92,999.99,2047.98,3458.01,3354.76,3649.99,350.57,316.31,1.70,0000 0000 0000 0000 000000
2013-09-12 01:58:23,-0.01,0.01,0.00,25.48,28.20,30.76,5.54,29.92,1000.00,2047.98,3458.00,3354.75,3649.99,350.01,316.04,1.71,0000 0000 0000 0000 000000
2013-09-12 01:59:23,-0.01,0.01,0.00,25.51,28.20,30.75,5.65,29.88,1000.01,2047.98,3457.98,3354.75,3649.99,349.01,315.09,1.71,0000 0000 0000 0000 000000
2013-09-12 02:00:23,0.01,0.01,0.00,25.49,28.20,30.73,5.70,29.92,1000.00,2047.97,3457.99,3354.65,3649.98,348.62,314.76,1.72,0000 0000 0000 0000 000000
2013-09-12 02:01:24,0.01,0.01,0.00,25.51,28.20,30.81,5.73,29.92,1000.01,2047.98,3457.99,3354.73,3649.99,349.43,315.49,1.73,0000 0000 0000 0000 000000
2013-09-12 02:02:24,-0.01,0.01,0.00,25.51,28.20,30.75,5.66,29.75,1000.01,2047.98,3457.99,3354.81,3649.99,349.52,315.25,1.73,0000 0000 0000 0000 000000
2013-09-12 02:03:24,-0.01,0.01,0.00,25.56,28.20,30.77,5.60,29.88,1000.01,2047.99,3457.99,3354.84,3649.99,349.25,315.26,1.74,0000 0000 0000 0000 000000
2013-09-12 02:04:25,0.00,0.01,0.00,25.52,28.20,30.79,5.74,29.83,1000.01,2047.98,3457.99,3354.84,3649.97,349.24,316.01,1.74,0000 0000 0000 0000 000000
2013-09-12 02:05:25,-0.01,0.01,0.00,25.48,28.20,30.81,5.85,29.83,1000.01,2047.97,3457.98,3354.86,3649.99,350.59,316.39,1.75,0000 0000 0000 0000 000000
2013-09-12 02:06:25,0.00,0.01,0.00,25.44,28.20,30.77,5.71,29.83,1000.01,2047.98,3457.98,3354.72,3649.98,349.36,315.50,1.76,0000 0000 0000 0000 000000
2013-09-12 02:07:26,0.03,0.01,0.00,25.42,28.20,30.71,5.95,30.00,1000.01,2047.98,3457.98,3354.59,3649.97,350.31,316.38,1.76,0000 0000 0000 0000 000000
2013-09-12 02:08:26,0.02,0.01,0.00,25.44,28.20,30.68,6.01,29.88,1000.01,2047.98,3457.99,3354.64,3649.97,349.28,315.19,1.77,0000 0000 0000 0000 000000
2013-09-12 02:09:26,0.00,0.01,0.00,25.53,28.20,30.74,5.92,30.13,1000.01,2047.99,3457.99,3354.60,3649.98,350.66,316.58,1.77,0000 0000 0000 0000 000000
2013-09-12 02:10:26,0.00,0.01,0.00,25.52,28.20,30.69,5.93,30.04,1000.01,2047.99,3457.99,3354.56,3649.98,350.63,316.56,1.78,0000 0000 0000 0000 000000
2013-09-12 02:11:27,0.01,0.01,0.00,25.50,28.20,30.71,6.05,30.13,1000.01,2047.98,3457.94,3354.41,3649.96,350.61,316.56,1.78,0000 0000 0000 0000 000000
2013-09-12 02:12:27,0.02,0.01,0.00,25.48,28.20,30.69,5.69,29.92,1000.01,2047.98,3457.95,3354.39,3649.97,349.70,315.96,1.79,0000 0000 0000 0000 000000
2013-09-12 02:13:27,0.01,0.01,0.00,25.40,28.20,30.73,5.66,29.83,1000.01,2047.97,3457.96,3354.36,3649.98,349.33,315.84,1.80,0000 0000 0000 0000 000000
2013-09-12 02:14:27,0.00,0.01,0.00,25.33,28.20,30.74,5.63,29.75,1000.01,2047.97,3457.98,3354.30,3649.95,349.77,316.05,1.80,0000 0000 0000 0000 000000
2013-09-12 02:15:28,0.01,0.01,0.00,25.31,28.20,30.74,5.78,29.83,1000.01,2047.94,3457.96,3354.22,3649.86,349.59,315.91,1.81,0000 0000 0000 0000 000000
2013-09-12 02:16:28,0.00,0.01,0.00,25.38,28.20,30.75,5.58,29.88,1000.00,2047.96,3457.95,3354.25,3649.90,349.17,316.08,1.81,0000 0000 0000 0000 000000
2013-09-12 02:17:28,0.01,0.01,0.00,25.41,28.20,30.77,5.73,29.88,1000.00,2047.97,3457.94,3354.18,3649.79,349.67,315.80,1.82,0000 0000 0000 0000 000000
2013-09-12 02:18:29,0.02,0.01,0.00,25.42,28.20,30.80,5.93,30.04,1000.01,2047.97,3457.94,3354.15,3649.82,350.04,316.14,1.83,0000 0000 0000 0000 000000
2013-09-12 02:19:29,0.01,0.01,0.00,25.43,28.20,30.75,6.01,29.96,1000.00,2047.99,3457.95,3354.17,3649.85,351.26,317.21,1.83,0000 0000 0000 0000 000000
2013-09-12 02:20:29,-0.02,0.01,0.00,25.46,28.20,30.72,5.82,29.96,999.99,2047.96,3457.97,3354.29,3649.88,350.29,315.82,1.84,0000 0000 0000 0000 000000
2013-09-12 02:21:29,-0.05,0.01,0.00,25.51,28.20,30.74,5.98,30.08,999.97,2047.96,3457.96,3354.30,3649.84,350.64,316.56,1.84,0000 0000 0000 0000 000000
2013-09-12 02:22:30,0.00,0.01,0.00,25.52,28.20,30.70,6.06,29.92,999.97,2047.98,3457.96,3354.36,3649.89,350.84,316.73,1.85,0000 0000 0000 0000 000000
2013-09-12 02:23:30,0.02,0.01,0.00,25.57,28.20,30.77,6.01,30.08,999.86,2047.97,3457.80,3354.25,3649.89,350.64,316.46,1.85,0000 0000 0000 0000 000000
2013-09-12 02:24:30,0.03,0.01,0.00,25.54,28.20,30.77,5.87,29.96,999.81,2047.96,3457.74,3354.19,3649.76,350.92,316.72,1.86,0000 0000 0000 0000 000000
2013-09-12 02:25:30,0.03,0.01,0.00,25.49,28.20,30.71,5.86,30.29,999.82,2047.96,3457.59,3354.11,3649.70,350.35,316.26,1.87,0000 0000 0000 0000 000000
2013-09-12 02:26:31,0.04,0.01,0.00,25.46,28.20,30.70,5.93,30.21,999.76,2047.95,3457.30,3354.04,3649.43,350.45,316.38,1.87,0000 0000 0000 0000 000000
2013-09-12 02:27:31,0.06,0.01,0.00,25.43,28.20,30.74,6.01,30.08,999.76,2047.95,3457.15,3354.03,3649.25,350.41,315.95,1.88,0000 0000 0000 0000 000000
2013-09-12 02:28:31,0.05,0.01,0.00,25.44,28.20,30.70,6.01,30.25,999.74,2047.97,3457.16,3354.02,3649.25,349.99,316.15,1.88,0000 0000 0000 0000 000000
2013-09-12 02:29:31,0.01,0.01,0.00,25.42,28.20,30.73,5.67,29.83,999.71,2047.93,3457.13,3354.02,3649.19,349.79,316.10,1.89,0000 0000 0000 0000 000000
2013-09-12 02:30:32,-0.01,0.01,0.00,25.39,28.20,30.75,5.71,29.88,999.69,2047.96,3457.19,3354.05,3649.18,349.51,316.03,1.90,0000 0000 0000 0000 000000
2013-09-12 02:31:32,-0.01,0.01,0.00,25.45,28.20,30.75,5.99,30.04,999.70,2047.97,3457.29,3354.07,3649.24,350.92,316.06,1.90,0000 0000 0000 0000 000000
2013-09-12 02:32:32,-0.01,0.01,0.00,25.48,28.20,30.72,5.71,29.92,999.68,2047.96,3457.23,3354.03,3649.16,349.65,315.37,1.91,0000 0000 0000 0000 000000
2013-09-12 02:33:32,0.01,0.01,0.00,25.53,28.20,30.71,5.57,29.83,999.70,2047.94,3457.24,3354.05,3649.23,349.53,315.46,1.91,0000 0000 0000 0000 000000
2013-09-12 02:34:33,-0.02,0.01,0.00,25.57,28.20,30.68,5.98,29.88,999.74,2047.95,3457.32,3354.04,3649.24,350.06,315.85,1.92,0000 0000 0000 0000 000000
2013-09-12 02:35:33,0.00,0.01,0.00,25.55,28.20,30.70,5.73,29.92,999.76,2047.97,3457.20,3354.05,3649.16,350.62,316.67,1.92,0000 0000 0000 0000 000000
2013-09-12 02:36:33,0.03,0.01,0.00,25.51,28.20,30.77,5.81,29.92,999.77,2047.97,3457.17,3354.02,3649.14,349.43,315.41,1.93,0000 0000 0000 0000 000000
2013-09-12 02:37:34,-0.01,0.01,0.00,25.52,28.20,30.81,5.97,30.00,999.73,2047.96,3457.18,3354.02,3649.28,350.00,315.90,1.94,0000 0000 0000 0000 000000
2013-09-12 02:38:34,-0.02,0.01,0.00,25.54,28.20,30.76,5.90,29.92,999.65,2047.96,3457.15,3354.05,3649.23,350.27,315.98,1.94,0000 0000 0000 0000 000000